STARLINK-1728 (46582 NORAD) Tracking and Keplerian Element Data

This shows tracking and keplerian element data for the satellite.

Feedback or suggestion? Click here.




ElementValue
Catalog46582
NameSTARLINK-1728
Epoch Orbit875
Epoch Day331.16668981
Epoch Year2020
RAAN193.3818
Inclination52.9992
Eccentricity0.0001879
Argument of Perigee36.877
Mean Anonmoly40.8177
Mean Motion15.62855323
Decay Rate-0.00037495
L11 46582U 20070BC 20331.16668981 -.00037495 00000-0 -40387-3 0 9993
L22 46582 52.9992 193.3818 0001879 36.8770 40.8177 15.62855323 8759

Live tracking and technical data element details for STARLINK-1728 (NORAD 46582). STARLINK-1728 can be tracked NOW for your location showing map with azimuth and elevation plus other details from your city location.

Track the satellite on the map from your city or location and see movement details for azimuth, elevation, latitude, longitude, range, height, and movement on the map or in text.







IsCatalogInMostPopularTable: catalog: 46582, numindb: 12
Update: records affected: 1



GetName: 46582 STARLINK-1728

Hit Count: updated at: Thu, 26 Nov 2020 23:19:06 GMT